Dewpoint
49 49 48 49 49 48 48 48 48 47 48 48 48 48 48 48 47 47 48 50 45 40 38 37 34 32 28 28 30 40 30 34 34 36 33 25 22 22 23 27 29 26 30 29 32 32 30 45 42 40 51 51 51 51
49 49 48 48 49 49 49 48 48 46 48 48 47 47 47 46 46 46 45 50 49 43 37 38 37 35 33 31 28 28 32 34 33 41 43 41 42 39 32 27 29 28 31 30 31 34 51 50 50 51 51 51 51 51
49 48 48 48 49 49 48 48 48 48 47 47 47 46 46 47 46 48 46 49 48 43 38 34 31 33 33 32 31 28 29 33 38 40 36 43 43 49 42 35 32 40 37 35 40 48 49 49 50 49 49 49 50 51
48 48 48 48 48 47 47 48 48 47 47 46 47 46 46 46 46 47 48 50 47 43 34 28 28 29 31 31 32 31 32 37 35 35 35 44 44 50 46 50 50 50 46 42 47 50 49 49 50 50 50 50 50 54
48 48 48 47 48 48 47 47 47 47 46 46 46 46 47 46 47 46 47 50 51 43 32 29 28 31 27 29 32 31 31 34 32 33 42 44 45 47 51 51 46 49 50 48 42 50 50 48 47 47 47 47 48 49
48 47 48 48 48 47 47 47 47 47 46 46 47 47 46 46 48 45 43 44 44 49 36 26 33 34 35 29 34 34 33 35 35 43 42 47 44 44 46 43 45 51 53 53 50 49 47 46 46 45 44 42 42 42
48 48 48 48 48 48 47 47 47 47 46 46 46 46 47 47 43 45 41 40 42 43 38 35 35 38 39 35 33 35 37 36 38 43 40 47 46 49 43 42 47 48 49 49 50 50 50 49 49 47 48 44 44 42
49 49 49 49 48 47 47 47 47 48 47 47 47 47 48 49 47 40 42 45 43 42 42 36 34 41 38 34 36 37 36 37 45 43 46 46 49 48 42 46 46 47 48 48 46 48 48 50 52 53 52 50 43 43
49 49 49 49 49 48 48 47 47 48 49 49 49 48 45 42 36 48 48 48 45 43 38 39 37 37 36 42 41 33 31 30 37 36 47 48 44 41 45 46 47 47 47 49 48 49 49 48 47 49 51 50 48 46
49 49 49 49 49 49 49 49 49 49 48 49 46 43 44 40 47 48 49 45 42 42 39 35 36 39 39 37 26 27 28 31 37 45 48 44 41 46 48 48 50 49 49 49 47 48 49 51 50 49 49 49 45 50
49 49 49 48 49 49 49 49 49 49 48 42 39 39 41 48 43 46 41 41 42 39 37 40 44 41 37 41 37 38 45 37 39 44 43 40 40 45 48 48 51 51 53 50 49 48 50 49 51 51 47 47 47 46
48 48 49 48 48 49 49 49 50 46 42 44 44 44 44 42 43 38 39 41 40 39 43 43 43 39 37 40 44 44 39 43 37 47 40 38 44 48 48 48 49 52 50 49 49 49 49 47 44 45 45 45 46 47
48 48 48 48 48 48 48 50 50 50 48 47 46 42 40 41 37 35 36 38 39 43 45 45 41 37 42 50 43 45 35 38 41 41 38 41 46 49 50 50 50 51 47 46 47 46 45 42 43 45 46 46 46 47
49 49 49 48 48 48 49 50 49 47 45 41 40 36 36 38 39 40 41 40 44 44 44 41 38 42 43 39 39 35 35 40 38 37 38 45 48 49 50 48 46 44 43 42 42 42 42 42 43 45 46 47 47 50
48 48 49 48 48 49 49 50 49 47 46 41 40 35 39 41 43 44 42 36 37 36 36 37 37 38 35 37 38 38 37 37 38 40 45 48 50 50 48 46 43 43 43 44 43 42 42 42 43 45 49 48 49 50
48 48 45 48 48 48 49 49 48 46 47 45 41 37 38 38 33 32 36 36 38 38 36 42 36 37 37 40 39 37 36 35 38 46 50 52 51 49 49 50 48 45 45 45 44 43 43 44 45 47 45 47 49 50
49 41 48 48 49 49 50 46 44 38 38 35 35 31 33 33 34 36 37 37 40 36 34 34 37 38 41 38 38 39 37 40 46 49 52 52 52 52 51 50 49 47 47 46 46 47 48 46 46 49 49 46 45 47
42 44 48 49 49 47 45 42 39 33 31 31 31 33 34 35 37 38 38 40 40 39 38 38 38 37 38 38 39 44 47 49 51 52 54 54 54 52 54 52 51 52 50 48 47 49 47 49 48 47 47 45 51 44
46 47 49 49 48 47 40 38 41 33 31 33 34 34 34 37 39 39 39 40 40 38 37 37 37 38 41 45 45 48 50 52 52 54 55 54 54 53 52 51 50 51 47 47 46 44 43 46 42 41 40 40 38 41
49 49 49 49 49 44 37 40 40 36 33 35 35 34 35 36 37 37 35 36 36 36 36 34 35 38 39 42 43 47 50 53 54 52 51 45 47 46 47 44 42 46 42 44 40 39 39 38 36 36 36 37 37 37
48 49 49 47 45 44 42 40 38 38 37 35 36 36 36 39 40 41 44 39 38 39 40 46 48 51 51 52 54 55 52 51 53 52 47 39 38 38 38 38 39 37 36 36 36 36 36 34 33 32 32 33 33 33
48 49 47 48 46 44 44 43 41 41 40 37 41 41 42 41 42 43 46 43 45 48 50 52 53 54 53 51 51 50 53 54 54 55 51 52 43 40 40 38 37 36 36 34 33 33 32 32 31 29 29 29 32 32
48 47 47 46 45 43 43 45 42 42 40 41 41 40 41 43 44 45 44 47 48 51 53 53 51 51 47 43 44 42 45 45 42 43 44 41 40 39 36 36 33 33 33 33 32 31 30 32 31 29 29 29 30 32
47 46 45 44 45 43 45 43 43 42 41 40 42 42 42 45 49 46 43 46 50 51 44 46 38 36 37 43 34 35 35 33 33 36 37 35 34 36 36 33 32 31 31 31 30 30 29 28 30 27 29 29 29 29
43 42 45 42 47 42 37 37 39 38 35 38 38 40 43 47 40 39 41 45 39 37 37 37 36 36 34 33 31 30 35 30 32 33 35 34 33 32 32 33 34 33 32 31 31 30 29 28 28 28 29 29 31 30
41 44 41 41 42 40 38 34 35 35 35 34 35 38 40 40 35 38 43 42 36 36 36 36 35 33 33 33 31 28 27 28 33 31 32 30 31 30 31 31 31 32 31 31 29 28 28 29 28 29 27 29 32 29
39 40 46 48 44 42 42 41 41 37 33 35 36 35 34 34 36 36 38 37 38 36 36 36 35 33 33 32 31 30 27 27 30 28 31 31 30 30 29 28 29 29 29 29 28 27 27 26 25 26 25 25 25 25
45 44 43 42 43 41 39 37 34 34 35 37 38 36 36 36 37 37 39 41 41 42 41 39 37 32 30 29 27 24 26 26 27 27 25 27 27 27 28 25 25 33 26 25 23 23 24 22 21 22 23 22 22 23
42 40 42 40 39 38 40 38 38 38 39 38 41 38 39 45 44 42 42 42 43 47 46 34 30 29 27 24 24 23 25 25 26 26 26 24 23 22 23 22 22 22 22 22 30 26 24 21 22 22 23 21 21 21
38 38 39 38 40 42 43 39 39 40 41 41 42 41 42 45 47 49 48 45 40 33 31 29 28 25 22 20 22 24 24 24 24 24 22 21 20 21 22 22 22 21 22 21 20 20 28 23 25 20 21 20 20 20
36 35 37 40 41 41 39 41 42 42 42 42 43 42 42 43 46 43 36 35 31 30 29 26 24 22 22 22 24 24 22 24 25 25 24 20 20 21 22 21 20 20 21 20 19 19 19 19 19 19 19 20 20 21
34 34 33 32 38 42 43 46 42 41 40 41 40 41 41 45 43 38 35 32 30 27 31 27 23 22 24 24 24 24 30 25 25 24 24 20 20 22 20 19 19 20 21 20 19 19 20 20 19 20 20 20 20 20
34 33 34 32 32 30 40 45 46 42 40 38 42 44 40 41 38 36 35 33 30 27 25 24 22 23 27 26 25 25 27 26 28 29 28 27 27 26 23 21 22 23 22 22 21 21 22 22 21 22 22 21 20 20
Lifted_Index
5 5 4 3 1 1 1 1 1 1 1 0 -0 -0 -0 -0 0 0 0 0 1 1 1 1 1 1 1 1 2 2 1 1 1 1 1 0 -0 -1 -1 -0 0 1 1 0 -1 -2 -2 -3 -3 -3 -3 -4 -4 -4
4 4 4 3 2 1 1 1 1 1 1 0 0 -0 -0 -0 0 0 0 0 1 1 1 1 1 1 1 2 2 2 2 2 2 1 1 1 -0 -1 -1 -1 -0 -0 -0 -1 -2 -2 -3 -3 -3 -3 -3 -4 -4 -4
4 4 3 3 2 2 2 1 1 1 1 0 0 0 -0 0 0 1 0 0 1 1 1 0 0 0 1 2 2 3 3 2 2 2 2 1 0 -1 -1 -1 -1 -1 -2 -2 -2 -3 -3 -3 -2 -2 -2 -3 -3 -4
4 4 3 3 3 2 2 2 1 1 1 1 0 0 0 1 1 1 1 0 1 1 1 1 0 0 1 2 2 3 3 3 3 3 3 2 1 1 -0 -1 -1 -1 -2 -3 -3 -2 -2 -1 -1 -1 -1 -1 -1 -2
4 3 3 3 3 2 2 2 2 1 1 1 1 1 1 1 1 1 1 1 1 1 1 1 1 0 1 1 2 2 3 3 3 3 3 2 2 1 0 -0 -0 -0 -1 -2 -2 -1 -0 1 1 1 1 1 1 0
4 3 3 3 3 3 2 2 2 1 1 1 1 1 1 1 1 1 1 1 2 2 2 1 0 -0 -0 1 1 2 2 3 3 3 2 2 2 1 1 0 0 0 -1 -1 -1 -0 1 2 3 3 3 3 3 3
3 3 3 3 3 3 2 2 2 2 2 2 2 2 2 2 2 2 2 2 3 3 2 1 0 -1 -1 -0 0 1 2 3 3 3 2 1 1 1 1 1 0 -0 -1 -0 0 1 1 2 3 4 4 5 4 4
4 4 3 3 3 3 3 2 2 2 2 2 2 2 2 2 2 2 2 3 3 3 2 1 0 -1 -1 -1 0 0 1 2 3 2 2 1 2 2 1 1 1 0 0 1 1 2 2 2 3 3 4 4 4 4
4 4 4 4 4 3 3 3 3 2 2 2 2 2 2 2 2 2 2 3 3 3 2 1 0 -0 -0 -0 0 1 1 2 2 2 1 1 2 2 2 2 2 2 2 2 2 2 2 2 2 3 3 4 4 4
5 4 4 4 4 4 3 3 3 3 2 2 2 1 1 1 1 1 2 2 3 2 2 1 -0 -0 -0 -0 0 1 1 1 1 1 1 2 2 3 3 3 3 3 3 3 3 3 3 2 3 3 3 4 4 4
5 5 5 5 4 4 4 3 3 3 2 2 2 1 1 1 1 1 1 1 1 1 1 -0 -1 -1 -0 -0 0 0 0 0 0 1 1 2 2 3 3 3 3 3 3 4 4 3 3 3 3 4 4 4 4 3
6 6 5 5 5 4 4 4 3 3 2 2 2 2 2 1 1 1 1 1 0 -0 -1 -1 -1 -1 -0 0 0 -0 -0 0 0 1 1 2 2 3 3 3 3 3 3 4 4 4 3 3 3 3 4 4 3 2
6 6 6 5 5 5 5 4 4 3 3 2 2 2 1 1 1 1 0 0 -0 -1 -1 -1 -1 -1 -1 -0 0 0 0 0 0 1 1 2 2 2 2 2 2 3 3 3 3 3 3 3 3 3 3 3 2 1
6 6 6 6 6 5 5 4 4 3 3 2 2 1 1 1 1 0 -0 -0 -1 -1 -1 -1 -1 -1 -1 -1 -0 0 0 0 1 1 1 1 1 1 1 1 2 2 3 3 3 3 3 3 2 1 1 1 0 -0
7 6 6 6 6 5 5 4 3 2 1 1 1 1 1 0 0 -0 -1 -1 -1 -1 -1 -1 -1 -1 -1 -1 -0 0 0 1 1 1 1 1 1 1 1 1 1 2 2 3 3 3 3 3 2 1 1 0 -0 -0
7 6 6 6 6 5 4 3 1 1 0 1 1 1 1 0 0 -0 -0 -0 -1 -1 -1 -1 -1 -1 -0 0 0 1 1 1 1 1 1 0 0 0 0 0 1 1 1 2 2 2 2 2 1 1 1 1 1 1
7 6 6 6 6 5 3 2 1 0 0 0 1 1 1 1 0 0 0 -0 -1 -1 -1 -1 -0 0 0 1 1 1 1 1 1 1 0 -0 -0 0 0 -0 -0 0 0 0 0 0 0 0 1 1 1 1 1 2
6 6 6 6 6 4 3 2 1 1 1 1 1 1 1 1 0 0 1 0 -0 -0 -0 -0 0 1 1 1 1 1 1 1 0 -0 -1 -1 -1 -1 -1 -0 -0 -0 -0 -0 -0 -0 -0 0 1 1 1 2 2 2
6 6 6 6 5 3 2 2 2 2 2 1 1 1 0 0 0 0 0 0 0 0 0 1 1 1 1 1 1 1 0 -0 -1 -1 -1 -1 -1 -1 -1 -1 -0 -0 0 0 0 1 1 1 2 2 2 2 2 2
5 5 5 5 4 3 2 2 2 2 2 2 1 1 1 0 -0 -0 -0 0 -0 0 1 1 1 1 0 0 0 -0 -0 -1 -1 -1 -1 -0 -0 0 0 0 0 1 1 1 2 2 2 3 3 3 4 4 3 3
4 4 4 4 3 2 2 2 2 2 2 2 1 1 1 0 0 -0 -0 -0 -0 -0 0 0 -0 -0 -0 -0 -0 -0 -1 -1 -1 -1 -0 0 1 1 1 1 1 2 2 2 3 3 3 4 5 5 5 5 5 5
3 3 3 3 2 2 2 2 2 2 2 1 1 1 1 1 0 0 0 0 0 -0 -0 -1 -1 -1 -0 0 0 1 0 -0 -0 -0 -0 0 1 2 2 2 3 3 3 4 4 4 5 6 6 6 6 6 6 6
2 2 2 2 2 1 1 1 1 1 1 1 0 0 0 0 0 0 1 1 0 -0 -0 -0 0 0 1 2 2 3 2 2 1 1 1 1 2 2 3 3 4 4 4 5 5 6 6 7 7 7 7 7 7 7
2 2 2 1 1 0 0 -0 -0 0 0 -0 -0 -0 -0 -1 -0 0 0 0 0 0 1 1 1 2 2 3 4 4 4 4 3 2 2 2 3 3 3 4 5 5 6 6 6 7 7 8 8 8 8 8 8 7
1 1 1 0 -0 -1 -1 -0 -0 -0 -0 -0 -0 -1 -1 -1 -0 0 1 1 1 2 2 2 3 3 3 4 5 5 6 5 4 4 4 4 4 4 4 5 6 6 7 7 8 8 8 8 9 8 8 8 8 8
0 -0 -0 -1 -1 -1 -1 -1 -1 -0 -0 -0 -0 -0 -1 -0 0 1 2 2 3 3 3 3 4 4 4 5 5 6 6 6 6 5 5 6 6 6 6 7 7 8 9 9 9 9 9 10 9 9 9 9 9 9
-1 -1 -1 -1 -1 -1 -1 -1 -1 -1 -0 -0 -0 -0 -0 0 1 3 3 3 4 4 4 4 4 5 5 5 6 6 7 7 7 7 6 7 8 8 8 9 9 10 11 11 11 11 11 11 11 11 11 11 11 11
-2 -2 -2 -2 -2 -1 -1 -1 -1 -0 -0 -0 -0 -0 1 2 3 4 5 5 5 4 4 5 5 5 6 6 7 7 8 8 8 8 7 8 8 9 10 11 11 12 12 12 13 13 13 13 13 13 12 12 12 12
-2 -2 -2 -2 -2 -1 -1 -1 -0 -0 0 0 0 1 2 3 4 5 5 5 5 5 5 5 5 6 7 7 8 8 8 8 9 9 9 9 9 10 11 12 12 12 12 13 13 13 13 13 13 13 12 12 12 12
-1 -1 -1 -2 -1 -1 -1 -0 0 1 1 2 2 2 3 4 4 5 5 5 5 5 5 6 6 7 7 8 8 8 8 9 9 10 10 10 11 11 12 12 12 12 12 12 12 12 12 12 12 12 12 12 12 12
0 -0 -0 -1 -1 -1 -0 0 1 1 2 2 3 3 3 3 4 4 5 5 5 6 6 7 7 8 8 8 8 8 9 9 10 11 12 12 12 12 12 12 12 12 12 12 11 11 11 11 11 11 11 11 12 12
1 1 1 0 -0 -0 -0 0 0 1 1 2 2 2 2 3 3 4 5 6 6 7 7 8 8 9 9 9 9 9 9 10 11 12 13 13 13 13 12 12 12 12 12 11 11 11 11 11 11 11 11 11 11 11
1 1 1 1 1 0 -0 -0 -0 0 1 1 1 1 1 2 3 4 5 6 7 7 8 8 9 9 10 10 10 10 10 10 11 12 13 14 14 13 13 13 12 12 12 11 11 11 11 11 11 11 11 11 11 11